GW6360 Weather Reports


time (UTC)temp
C
wind
direction
speed
KPH
gust
KPH
rain 1hr
cm
rain 24hr
cm
rain mn
cm
humidity
%
barometer
mb
20260503054725 -17 0.0 0.0 0.00 0.00 0.00 1008.6
20260503054222 -17 0.0 0.0 0.00 0.00 0.00 1008.5
20260503053720 -17 0.0 0.0 0.00 0.00 0.00 1008.9
20260503053219 -17 0.0 0.0 0.00 0.00 0.00 1008.8
20260503052714 -17 0.0 0.0 0.00 0.00 0.00 1008.8
20260503052211 -17 0.0 0.0 0.00 0.00 0.00 1009.0
20260503051706 -17 0.0 0.0 0.00 0.00 0.00 1009.2
20260503051204 -17 0.0 0.0 0.00 0.00 0.00 1009.1
20260503050700 -17 0.0 0.0 0.00 0.00 0.00 1008.8
20260503050157 -17 0.0 0.0 0.00 0.00 0.00 1009.1
20260503045655 -17 0.0 0.0 0.00 0.00 0.00 1009.2
20260503045152 -17 0.0 0.0 0.00 0.00 0.00 1009.2
20260503044648 -17 0.0 0.0 0.00 0.00 0.00 1009.2
20260503044146 -17 0.0 0.0 0.00 0.00 0.00 1009.3
20260503043642 -17 0.0 0.0 0.00 0.00 0.00 1009.5
20260503043139 -17 0.0 0.0 0.00 0.00 0.00 1009.8
20260503042636 -17 0.0 0.0 0.00 0.00 0.00 1009.9
20260503042132 -17 0.0 0.0 0.00 0.00 0.00 1009.8
20260503041628 -17 0.0 0.0 0.00 0.00 0.00 1010.0
20260503041126 -17 0.0 0.0 0.00 0.00 0.00 1010.1
20260503040624 -17 0.0 0.0 0.00 0.00 0.00 1009.9
20260503040121 -17 0.0 0.0 0.00 0.00 0.00 1010.1
20260503035617 -17 0.0 0.0 0.00 0.10 0.10 1009.9
20260503035115 -17 0.0 0.0 0.00 0.10 0.10 1009.9
20260503034612 -17 0.0 0.0 0.00 0.10 0.10 1009.9
20260503034109 -17 0.0 0.0 0.00 0.10 0.10 1010.0
20260503033607 -17 0.0 0.0 0.00 0.10 0.10 1010.0
20260503033104 -17 0.0 0.0 0.00 0.10 0.10 1010.2
20260503032602 -17 0.0 0.0 0.00 0.10 0.10 1010.1
20260503032100 -17 0.0 0.0 0.00 0.10 0.10 1010.0
20260503031558 -17 0.0 0.0 0.00 0.10 0.10 1010.0
20260503031055 -17 0.0 0.0 0.00 0.10 0.10 1010.0
20260503030550 -17 0.0 0.0 0.00 0.10 0.10 1010.0
20260503030048 -17 0.0 0.0 0.00 0.10 0.10 1010.1
20260503025544 -17 0.0 0.0 0.00 0.10 0.10 1010.0
20260503025043 -17 0.0 0.0 0.00 0.10 0.10 1010.0
20260503024538 -17 0.0 0.0 0.00 0.10 0.10 1010.1
20260503024036 -17 0.0 0.0 0.00 0.10 0.10 1009.9
20260503023532 -17 0.0 0.0 0.00 0.10 0.10 1010.0
20260503023030 -17 0.0 0.0 0.00 0.10 0.10 1010.0
20260503022526 -17 0.0 0.0 0.00 0.10 0.10 1010.1
20260503022021 -17 0.0 0.0 0.00 0.10 0.10 1010.1
20260503021518 -17 0.0 0.0 0.00 0.10 0.10 1010.2
20260503021015 -17 0.0 0.0 0.00 0.10 0.10 1010.3
20260503020512 -17 0.0 0.0 0.00 0.10 0.10 1010.3
20260503020009 -17 0.0 0.0 0.00 0.10 0.10 1010.5
20260503015505 -17 0.0 0.0 0.00 0.10 0.10 1010.5
20260503015002 -17 0.0 0.0 0.00 0.10 0.10 1010.5
20260503014458 -17 0.0 0.0 0.00 0.10 0.10 1010.4
20260503013957 -17 0.0 0.0 0.00 0.10 0.10 1010.5
20260503013453 -17 0.0 0.0 0.00 0.10 0.10 1010.5
20260503012950 -17 0.0 0.0 0.00 0.10 0.10 1010.6
20260503012449 -17 0.0 0.0 0.00 0.10 0.10 1010.5
20260503011944 -17 0.0 0.0 0.05 0.10 0.10 1010.4
20260503011441 -17 0.0 0.0 0.05 0.10 0.10 1010.4
20260503010938 -17 0.0 0.0 0.00 0.08 0.08 1010.5
20260503010435 -17 0.0 0.0 0.00 0.08 0.08 1010.3
20260503005932 -17 0.0 0.0 0.00 0.08 0.08 1010.3
20260503005430 -17 0.0 0.0 0.00 0.08 0.08 1010.3
20260503004926 -17 0.0 0.0 0.05 0.08 0.08 1010.2
20260503004423 -17 0.0 0.0 0.05 0.08 0.08 1010.3
20260503003921 -17 0.0 0.0 0.00 0.08 0.08 1010.3
20260503003417 -17 0.0 0.0 0.00 0.08 0.08 1010.3
20260503002915 -17 0.0 0.0 0.00 0.08 0.08 1010.1
20260503002412 -17 0.0 0.0 0.05 0.08 0.08 1010.2
20260503001908 -17 0.0 0.0 0.05 0.08 0.08 1010.3
20260503001404 -17 0.0 0.0 0.00 0.05 0.05 1010.3
20260503000902 -17 0.0 0.0 0.00 0.05 0.05 1010.2
20260503000400 -17 0.0 0.0 0.05 0.05 0.05 1010.2
20260502235856 -17 0.0 0.0 0.23 0.05 0.05 1010.4
20260502235353 -17 0.0 0.0 0.18 0.05 0.05 1010.3
20260502234850 -17 0.0 0.0 0.05 0.03 0.03 1010.6
20260502234347 -17 0.0 0.0 0.00 0.00 0.00 1010.6
20260502233844 -17 0.0 0.0 0.00 0.00 0.00 1010.2
20260502233339 -17 0.0 0.0 0.05 0.00 0.00 1010.2
20260502232837 -17 0.0 0.0 0.05 0.00 0.00 1010.4
20260502232333 -17 0.0 0.0 0.00 0.00 0.00 1010.3
20260502231829 -17 0.0 0.0 0.00 0.00 0.00 1010.5
20260502231327 -17 0.0 0.0 0.00 0.00 0.00 1010.4
20260502230825 -17 0.0 0.0 0.00 0.00 0.00 1010.3
20260502230323 -17 0.0 0.0 0.00 0.00 0.00 1010.4
20260502225820 -17 0.0 0.0 0.00 0.00 0.00 1010.3
20260502225317 -17 0.0 0.0 0.00 0.00 0.00 1010.4
20260502224813 -17 0.0 0.0 0.00 0.00 0.00 1010.5
20260502224309 -17 0.0 0.0 0.00 0.00 0.00 1010.5
20260502223807 -17 0.0 0.0 0.00 0.00 0.00 1010.1
20260502223305 -17 0.0 0.0 0.00 0.00 0.00 1010.3
20260502222802 -17 0.0 0.0 0.00 0.00 0.00 1010.2
20260502222300 -17 0.0 0.0 0.00 0.00 0.00 1010.0
20260502221755 -17 0.0 0.0 0.00 0.00 0.00 1010.2
20260502221252 -17 0.0 0.0 0.00 0.00 0.00 1010.3
20260502220749 -17 0.0 0.0 0.00 0.00 0.00 1010.4
20260502220244 -17 0.0 0.0 0.00 0.00 0.00 1010.1
20260502215741 -17 0.0 0.0 0.00 0.00 0.00 1010.1
20260502215239 -17 0.0 0.0 0.00 0.00 0.00 1010.1
20260502214736 -17 0.0 0.0 0.00 0.00 0.00 1010.2
20260502214234 -17 0.0 0.0 0.00 0.00 0.00 1010.2
20260502213730 -17 0.0 0.0 0.00 0.00 0.00 1010.2
20260502213227 -17 0.0 0.0 0.00 0.00 0.00 1010.1
20260502212726 -17 0.0 0.0 0.00 0.00 0.00 1010.3
20260502212224 -17 0.0 0.0 0.00 0.00 0.00 1010.3
20260502211719 -17 0.0 0.0 0.00 0.00 0.00 1010.2
20260502211216 -17 0.0 0.0 0.00 0.00 0.00 1010.1
20260502210713 -17 0.0 0.0 0.00 0.00 0.00 1010.3
20260502210211 -17 0.0 0.0 0.00 0.00 0.00 1010.3
20260502205708 -17 0.0 0.0 0.00 0.00 0.00 1010.4
20260502205204 -17 0.0 0.0 0.00 0.00 0.00 1010.4
20260502204701 -17 0.0 0.0 0.00 0.00 0.00 1010.4
20260502204159 -17 0.0 0.0 0.00 0.00 0.00 1010.3
20260502203656 -17 0.0 0.0 0.00 0.00 0.00 1010.6
20260502203154 -17 0.0 0.0 0.00 0.00 0.00 1010.6
20260502202648 -17 0.0 0.0 0.00 0.00 0.00 1010.5
20260502202147 -17 0.0 0.0 0.00 0.00 0.00 1010.8
20260502201643 -17 0.0 0.0 0.00 0.00 0.00 1010.7
20260502201140 -17 0.0 0.0 0.00 0.00 0.00 1010.6
20260502200636 -17 0.0 0.0 0.00 0.00 0.00 1010.8
20260502200133 -17 0.0 0.0 0.00 0.00 0.00 1010.7
20260502195631 -17 0.0 0.0 0.00 0.00 0.00 1010.7
20260502195126 -17 0.0 0.0 0.00 0.00 0.00 1010.8
20260502194624 -17 0.0 0.0 0.00 0.00 0.00 1010.7
20260502194120 -17 0.0 0.0 0.00 0.00 0.00 1011.1
20260502193617 -17 0.0 0.0 0.00 0.00 0.00 1011.1
20260502193114 -17 0.0 0.0 0.00 0.00 0.00 1011.0
20260502192609 -17 0.0 0.0 0.00 0.00 0.00 1010.9
20260502192107 -17 0.0 0.0 0.00 0.00 0.00 1011.1
20260502191603 -17 0.0 0.0 0.00 0.00 0.00 1011.3
20260502191101 -17 0.0 0.0 0.00 0.00 0.00 1011.4
20260502190559 -17 0.0 0.0 0.00 0.00 0.00 1011.5
20260502190055 -17 0.0 0.0 0.00 0.00 0.00 1011.6
20260502185550 -17 0.0 0.0 0.00 0.00 0.00 1011.6
20260502185048 -17 0.0 0.0 0.00 0.00 0.00 1011.7
20260502184543 -17 0.0 0.0 0.00 0.00 0.00 1011.7
20260502184039 -17 0.0 0.0 0.00 0.00 0.00 1011.5
20260502183536 -17 0.0 0.0 0.00 0.00 0.00 1011.7
20260502183032 -17 0.0 0.0 0.00 0.00 0.00 1011.8
20260502182527 -17 0.0 0.0 0.00 0.00 0.00 1011.7
20260502182023 -17 0.0 0.0 0.00 0.00 0.00 1011.6
20260502181521 -17 0.0 0.0 0.00 0.00 0.00 1011.6
20260502181020 -17 0.0 0.0 0.00 0.00 0.00 1011.6
20260502180516 -17 0.0 0.0 0.00 0.00 0.00 1011.9
20260502170436 -17 0.0 0.0 0.00 0.00 0.00 1011.7
20260502163919 -17 0.0 0.0 0.00 0.00 0.00 1012.2
20260502163415 -17 0.0 0.0 0.00 0.00 0.00 1011.8
20260502162913 -17 0.0 0.0 0.00 0.00 0.00 1011.8
20260502162410 -17 0.0 0.0 0.00 0.00 0.00 1012.0
20260502161907 -17 0.0 0.0 0.00 0.00 0.00 1011.9
20260502161403 -17 0.0 0.0 0.00 0.00 0.00 1012.0
20260502160901 -17 0.0 0.0 0.00 0.00 0.00 1011.9
20260502160359 -17 0.0 0.0 0.00 0.00 0.00 1012.0
20260502152334 10 156 17.7 20.9 0.00 0.00 0.00 83 1012.5
20260502151832 10 156 17.7 20.9 0.00 0.00 0.00 83 1012.5
20260502151328 10 156 17.7 20.9 0.00 0.00 0.00 83 1012.7
20260502150826 10 156 17.7 20.9 0.00 0.00 0.00 83 1012.3
20260502150322 10 156 17.7 20.9 0.00 0.00 0.00 83 1012.2
20260502130710 10 198 12.9 14.5 0.00 0.00 0.00 86 1012.7
20260502130208 10 198 12.9 14.5 0.00 0.00 0.00 86 1012.6
20260502123654 10 204 16.1 16.1 0.00 0.00 0.00 85 1012.8
20260502123150 10 204 16.1 16.1 0.00 0.00 0.00 85 1012.9
20260502122646 10 191 12.9 20.9 0.00 0.00 0.00 84 1012.9
20260502122143 10 191 12.9 20.9 0.00 0.00 0.00 84 1012.7
20260502121642 10 191 12.9 20.9 0.00 0.00 0.00 84 1012.6
20260502121139 10 191 12.9 20.9 0.00 0.00 0.00 84 1012.7
20260502120635 10 191 12.9 20.9 0.00 0.00 0.00 84 1012.6
20260502120132 10 191 12.9 20.9 0.00 0.00 0.00 84 1012.7
20260502115630 10 191 12.9 20.9 0.00 0.00 0.00 84 1012.6
20260502115126 10 191 12.9 20.9 0.00 0.00 0.00 84 1012.5
20260502114622 10 191 12.9 20.9 0.00 0.00 0.00 84 1012.7
20260502114119 10 187 9.7 14.5 0.00 0.00 0.00 85 1012.5
20260502113617 10 192 14.5 16.1 0.00 0.00 0.00 84 1012.6
20260502113115 9 186 12.9 16.1 0.00 0.00 0.00 84 1012.5
20260502112612 9 181 17.7 19.3 0.00 0.00 0.00 84 1012.5
20260502112110 9 181 17.7 19.3 0.00 0.00 0.00 84 1012.5
20260502111607 9 176 6.4 16.1 0.00 0.00 0.00 84 1012.4
20260502111104 9 179 14.5 16.1 0.00 0.00 0.00 84 1012.4
20260502110602 9 181 11.3 14.5 0.00 0.00 0.00 85 1012.5
20260502110059 9 181 11.3 14.5 0.00 0.00 0.00 85 1012.3
20260502105556 9 172 12.9 17.7 0.00 0.00 0.00 85 1012.4
20260502105054 9 182 9.7 12.9 0.00 0.00 0.00 85 1012.4
20260502104550 9 194 11.3 16.1 0.00 0.00 0.00 85 1012.5
20260502104048 9 161 6.4 9.7 0.00 0.00 0.00 85 1012.3
20260502103546 -17 0.0 0.0 0.00 0.00 0.00 1012.4
20260502103044 -17 0.0 0.0 0.00 0.00 0.00 1012.1
20260502102540 -17 0.0 0.0 0.00 0.00 0.00 1012.0
20260502102037 -17 0.0 0.0 0.00 0.00 0.00 1012.1
20260502101535 -17 0.0 0.0 0.00 0.00 0.00 1012.0
20260502101033 -17 0.0 0.0 0.00 0.00 0.00 1011.9
20260502100531 -17 0.0 0.0 0.00 0.00 0.00 1012.1
20260502091506 -17 0.0 0.0 0.00 0.00 0.00 1012.1
20260502091003 -17 0.0 0.0 0.00 0.00 0.00 1012.1
20260502090500 -17 0.0 0.0 0.00 0.00 0.00 1011.9
20260502071354 -17 0.0 0.0 0.00 0.00 0.00 1011.8
20260502070853 -17 0.0 0.0 0.00 0.00 0.00 1011.9
20260502070350 -17 0.0 0.0 0.00 0.00 0.00 1012.1
20260502065849 -17 0.0 0.0 0.00 0.00 0.00 1011.9
20260502065346 -17 0.0 0.0 0.00 0.00 0.00 1011.9
20260502064844 -17 0.0 0.0 0.00 0.00 0.00 1011.9
20260502064342 -17 0.0 0.0 0.00 0.00 0.00 1011.8
20260502063839 -17 0.0 0.0 0.00 0.00 0.00 1012.0
20260502063336 -17 0.0 0.0 0.00 0.00 0.00 1011.9
20260502062834 -17 0.0 0.0 0.00 0.00 0.00 1011.8
20260502062331 -17 0.0 0.0 0.00 0.00 0.00 1012.0
20260502061830 -17 0.0 0.0 0.00 0.00 0.00 1012.0
20260502061327 -17 0.0 0.0 0.00 0.00 0.00 1012.1
20260502060823 -17 0.0 0.0 0.00 0.00 0.00 1012.1
20260502060318 -17 0.0 0.0 0.00 0.00 0.00 1012.3
20260502055816 -17 0.0 0.0 0.00 0.00 0.00 1012.0